Location: Damada
(14.7329°N, 3.1761°W)
Time: 15:25:53
(UTC+00:00)

Cosmos 1633 - Pass Details

Date: 18 February 2020
Orbit: 464 x 482 km, 82.5° (Epoch: 28 March)

Event Time Altitude Azimuth Distance (km) Brightness Sun altitude
Rises 18:37:29 0° 197° (SSW) 2,489 6.6 -5.5°
Reaches altitude 10° 18:39:38 10° 205° (SSW) 1,617 5.8 -6.0°
Maximum altitude 18:42:57 39° 275° (W) 720 4.2 -6.8°
Drops below altitude 10° 18:46:18 10° 346° (NNW) 1,628 5.3 -7.6°
Sets 18:48:29 0° 354° (N) 2,509 6.2 -8.1°
